Regional Weather Roundup
Issued by NWS

Home | Current Version | Previous Version | Graphics & Text | Print | Product List | Glossary On
Versions: 1 2 3 4 5 6 7 8 9 10 11 12 13 14 15 16 17 18 19 20 21 22 23 24 25 26 27 28 29 30 31 32 33 34 35 36 37 38 39 40 41 42 43 44 45 46 47 48 49 50
000
ASUS45 KBOU 291907
RWRCO

WEATHER ROUNDUP FOR COLORADO
NATIONAL WEATHER SERVICE DENVER/BOULDER CO
100 PM MDT FRI AUG 29 2014

NOTE: "FAIR" INDICATES FEW OR NO CLOUDS BELOW 12000 FEET WITH NO
SIGNIFICANT WEATHER AND/OR OBSTRUCTIONS TO VISIBILITY.

COZ001>005-013-030-031-292000-
...NORTHWEST COLORADO...

CITY           SKY/WX    TMP DP  RH WIND       PRES   REMARKS
CRAIG          SUNNY     72  45  37 CALM      30.22F
HAYDEN         SUNNY     70  43  37 NW5       30.24F
MEEKER         SUNNY     73  43  33 VRB5      30.23F
MOUNT WERNER   NOT AVBL
STEAMBOAT SPGS MOSUNNY   67  48  50 SW6       30.26F
WALDEN         MOSUNNY   63  39  42 SW6       30.30F
$$

COZ006>008-011-292000-
...WEST CENTRAL VALLEYS...

CITY           SKY/WX    TMP DP  RH WIND       PRES   REMARKS
GRAND JUNCTION SUNNY     75  48  38 CALM      30.15F
MONTROSE       SUNNY     75  45  34 NW3       30.22F
EAGLE          MOSUNNY   72  45  37 NW3       30.25F
RIFLE          MOSUNNY   73  49  42 CALM      30.18F
DELTA          SUNNY     77  46  32 S3        30.19S
NUCLA          SUNNY     73  43  33 W5        30.25F
$$

COZ017>023-064>068-292000-
...SOUTHWEST COLORADO...

CITY           SKY/WX    TMP DP  RH WIND       PRES   REMARKS
DURANGO        SUNNY     75  30  19 NW8       30.22F
CORTEZ         SUNNY     80  38  22 N8        30.19F
PAGOSA SPRINGS SUNNY     72  29  19 CALM      30.28F
TELLURIDE      NOT AVBL
WOLF CREEK PAS PTSUNNY   50  28  43 E6        30.55F
$$

COZ009-010-012-014-032>034-037-058>063-292000-
...CENTRAL COLORADO...

CITY           SKY/WX    TMP DP  RH WIND       PRES   REMARKS
ASPEN          MOSUNNY   69  39  33 NW10G17   30.30F
BUENA VISTA    SUNNY     73  26  17 NW17      30.28F
COPPER MTN     LGT RAIN  52  37  58 W22G28    30.56F
BERTHOUD PASS  CLOUDY    34  34 100 NW12G21   30.60S WCI  25
COTTONWOOD PAS CLOUDY    63  28  27 CALM      30.42F
GUNNISON       SUNNY     66  37  34 SW3       30.33F
KREMMLING      SUNNY     70  43  37 CALM      30.29F
LEADVILLE      MOSUNNY   59  34  39 N13G21    30.42F
MONARCH PASS   PTSUNNY   50  36  57 W10G17    30.66F
SALIDA         SUNNY     74  32  21 S8        30.33F
SUNLIGHT       MOSUNNY   54  41  62 NW6       30.53F
WILKERSON PASS NOT AVBL
$$

COZ069>075-292000-
...SAN LUIS VALLEY/SANGRE DE CRISTO MOUNTAINS...

CITY           SKY/WX    TMP DP  RH WIND       PRES   REMARKS
ALAMOSA        SUNNY     69  35  28 NW6       30.29F
LA VETA PASS   NOT AVBL
SAGUACHE       NOT AVBL
$$

COZ035-036-038>040-292000-
...NORTHERN COLORADO FRONT RANGE...

CITY           SKY/WX    TMP DP  RH WIND       PRES   REMARKS
DENVER INTL AP MOSUNNY   78  47  33 NE8G18    30.10F
DMNS CITY PARK   N/A     80  44  28 N10G17    30.11S
AURORA         MOSUNNY   78  47  33 N10       30.13F
FRONT RANGE AP MOSUNNY   79  46  31 N13       30.12S
ERIE MUNI ARPT MOSUNNY   80  45  28 N9        30.09F
BOULDER MUN AP PTSUNNY   77  45  31 CALM      30.10F
CENTENNIAL     PTSUNNY   78  40  25 N10       30.13F
BROOMFIELD     PTSUNNY   81  45  28 N9        30.13S
FORT COLLINS   MOSUNNY   79  46  31 NE12      30.08F
LONGMONT       PTSUNNY   79  50  36 NW7       30.11S
$$

COZ041-046-047-076>085-087-088-292000-
...PIKES PEAK/PALMER DIVIDE AND SOUTHERN FOOTHILLS...

CITY           SKY/WX    TMP DP  RH WIND       PRES   REMARKS
COLO. SPRINGS  MOSUNNY   79  36  21 N8        30.16F
A. F. ACADEMY  MOSUNNY   75  38  27 NE10      30.17F
ELLICOTT       MOSUNNY   78  38  23 N12G17    30.15F
FALCON         MOSUNNY   74  38  26 N9G16     30.22F
FORT CARSON    PTSUNNY   77  38  25 NW3       30.14F
LIMON          SUNNY     78  43  28 N10G23    30.10F
MONUMENT HILL  SUNNY     72  41  33 N9        30.22F
TRINIDAD       SUNNY     81  33  17 NW10G20   30.14F
$$

COZ042>045-048>051-090-091-292000-
...NORTHEAST COLORADO...

CITY           SKY/WX    TMP DP  RH WIND       PRES   REMARKS
GREELEY ARPT   MOSUNNY   81  46  30 N13G21    30.07F
AKRON          SUNNY     78  46  32 NW5       30.05F
BURLINGTON     SUNNY     83  44  25 N9G26     30.01S
WRAY             N/A     85  50  29 N12G18    29.98S
STERLING       SUNNY     84  54  34 NW6       29.99F
HOLYOKE        SUNNY     84  52  32 N12       29.98S
FORT MORGAN    SUNNY     82  45  27 N6        30.05F
$$

COZ086-089-092>099-292000-
...SOUTHEAST COLORADO...

CITY           SKY/WX    TMP DP  RH WIND       PRES   REMARKS
PUEBLO         SUNNY     85  35  16 NE8       30.06F
LA JUNTA       SUNNY     86  45  23 NW16      30.02F
LAMAR          SUNNY     86  48  26 N8        29.97F
SPRINGFIELD      N/A     83  45  26 N16G23    30.03F
$$



USA.gov is the U.S. government's official web portal to all federal, state and local government web resources and services.